When you browse on this site, cookies collect data to enhance your experience and personalize the content and advertising you see.
Visit our Privacy Policy to learn more. By continuing to use the site, you agree to this use of cookies and data.
  • In Lithuania
  • List of Countries
  • For 7 days
  • Water Temperature
  • Satellite Maps
  • Weather Map
  • Weather Widgets
  • user-avatar
    Login

    Hourly Weather Korçe

    Today, 25 May, Saturday

    Time Temperature Precipitation Wind Pressure Humidity
    00:00 +8°C° 0 mm 1 mps 664 mmHg 94%
    01:00 +8°C° 0 mm 1 mps 664 mmHg 96%
    02:00 +8°C° 0 mm 1 mps 664 mmHg 95%
    03:00 +7°C° 0 mm 1 mps 664 mmHg 95%
    04:00 +7°C° 0 mm 1 mps 664 mmHg 94%
    05:00 +9°C° 0 mm 1 mps 665 mmHg 86%
    06:00 +11°C° 0 mm 1 mps 666 mmHg 79%
    07:00 +13°C° 0 mm 1 mps 666 mmHg 69%
    08:00 +14°C° 0 mm 1 mps 667 mmHg 64%
    09:00 +16°C° 0 mm 2 mps 667 mmHg 59%
    10:00 +17°C° 0 mm 2 mps 668 mmHg 54%
    11:00 +18°C° 0 mm 2 mps 668 mmHg 53%
    12:00 +18°C° 0 mm 3 mps 668 mmHg 53%
    13:00 +19°C° 0 mm 3 mps 668 mmHg 53%
    14:00 +18°C° 0.1 mm 3 mps 668 mmHg 56%
    15:00 +18°C° 0.1 mm 3 mps 668 mmHg 59%
    16:00 +17°C° 0.1 mm 3 mps 667 mmHg 62%
    17:00 +16°C° 0 mm 2 mps 667 mmHg 71%
    18:00 +14°C° 0 mm 2 mps 666 mmHg 79%
    19:00 +12°C° 0 mm 1 mps 666 mmHg 88%
    20:00 +12°C° 0 mm 1 mps 666 mmHg 90%
    21:00 +11°C° 0 mm 1 mps 666 mmHg 91%
    22:00 +9°C° 0 mm 0 mps 666 mmHg 93%
    23:00 +9°C° 0 mm 0 mps 666 mmHg 93%

    Tomorrow, 26 May, Sunday

    Time Temperature Precipitation Wind Pressure Humidity
    00:00 +9°C° 0 mm 0 mps 666 mmHg 93%
    01:00 +10°C° 0 mm 1 mps 666 mmHg 93%
    02:00 +10°C° 0 mm 1 mps 666 mmHg 93%
    03:00 +10°C° 0 mm 1 mps 666 mmHg 92%
    04:00 +10°C° 0 mm 1 mps 665 mmHg 92%
    05:00 +12°C° 0 mm 1 mps 666 mmHg 84%
    06:00 +14°C° 0 mm 1 mps 667 mmHg 76%
    07:00 +15°C° 0 mm 1 mps 667 mmHg 69%
    08:00 +18°C° 0 mm 1 mps 668 mmHg 60%
    09:00 +20°C° 0 mm 1 mps 668 mmHg 52%
    10:00 +21°C° 0 mm 2 mps 668 mmHg 43%
    11:00 +21°C° 0 mm 2 mps 669 mmHg 43%
    12:00 +23°C° 0 mm 2 mps 669 mmHg 44%
    13:00 +24°C° 0 mm 2 mps 669 mmHg 44%
    14:00 +23°C° 0 mm 2 mps 668 mmHg 49%
    15:00 +22°C° 0 mm 1 mps 668 mmHg 54%
    16:00 +21°C° 0 mm 1 mps 668 mmHg 59%
    17:00 +20°C° 0 mm 1 mps 667 mmHg 66%
    18:00 +18°C° 0 mm 1 mps 667 mmHg 73%
    19:00 +15°C° 0 mm 1 mps 666 mmHg 81%
    20:00 +15°C° 0 mm 1 mps 666 mmHg 83%
    21:00 +14°C° 0 mm 1 mps 666 mmHg 84%
    22:00 +14°C° 0 mm 2 mps 666 mmHg 86%
    23:00 +14°C° 0 mm 2 mps 666 mmHg 87%

    Day after tomorrow, 27 May, Monday

    Time Temperature Precipitation Wind Pressure Humidity
    00:00 +13°C° 0 mm 2 mps 666 mmHg 88%
    01:00 +13°C° 0 mm 2 mps 665 mmHg 89%
    02:00 +13°C° 0 mm 2 mps 665 mmHg 89%
    03:00 +13°C° 0 mm 2 mps 665 mmHg 89%
    04:00 +13°C° 0 mm 2 mps 665 mmHg 88%
    05:00 +14°C° 0 mm 2 mps 665 mmHg 85%
    06:00 +15°C° 0 mm 2 mps 666 mmHg 82%
    07:00 +16°C° 0 mm 2 mps 666 mmHg 78%
    08:00 +18°C° 0 mm 2 mps 667 mmHg 71%
    09:00 +20°C° 0 mm 2 mps 667 mmHg 63%
    10:00 +23°C° 0 mm 2 mps 667 mmHg 55%
    11:00 +23°C° 0 mm 2 mps 667 mmHg 54%
    12:00 +22°C° 0 mm 3 mps 667 mmHg 52%
    13:00 +24°C° 0 mm 3 mps 667 mmHg 50%
    14:00 +22°C° 0.2 mm 3 mps 667 mmHg 52%
    15:00 +22°C° 0.2 mm 3 mps 666 mmHg 53%
    16:00 +22°C° 0.2 mm 3 mps 666 mmHg 55%
    17:00 +20°C° 0.4 mm 3 mps 665 mmHg 63%
    18:00 +18°C° 0.4 mm 2 mps 665 mmHg 71%
    19:00 +16°C° 0.4 mm 2 mps 664 mmHg 79%
    20:00 +15°C° 0 mm 2 mps 664 mmHg 82%
    21:00 +14°C° 0 mm 2 mps 664 mmHg 85%
    22:00 +13°C° 0 mm 2 mps 664 mmHg 88%
    23:00 +13°C° 0 mm 2 mps 664 mmHg 89%

    28 May, Tuesday

    Time Temperature Precipitation Wind Pressure Humidity
    00:00 +12°C° 0 mm 2 mps 663 mmHg 91%
    01:00 +10°C° 0 mm 2 mps 663 mmHg 92%
    02:00 +10°C° 0 mm 2 mps 663 mmHg 93%
    03:00 +10°C° 0 mm 2 mps 663 mmHg 93%
    04:00 +10°C° 0 mm 2 mps 662 mmHg 94%
    05:00 +11°C° 0 mm 3 mps 663 mmHg 87%
    06:00 +12°C° 0 mm 3 mps 663 mmHg 80%
    07:00 +13°C° 0 mm 4 mps 664 mmHg 73%
    08:00 +15°C° 0 mm 4 mps 664 mmHg 69%
    09:00 +17°C° 0 mm 4 mps 664 mmHg 64%
    10:00 +18°C° 0 mm 4 mps 664 mmHg 59%
    11:00 +18°C° 0.1 mm 4 mps 664 mmHg 61%
    12:00 +18°C° 0.1 mm 4 mps 664 mmHg 62%
    13:00 +18°C° 0.1 mm 4 mps 664 mmHg 64%
    14:00 +17°C° 0.3 mm 4 mps 664 mmHg 69%
    15:00 +15°C° 0.3 mm 4 mps 664 mmHg 74%
    16:00 +14°C° 0.3 mm 4 mps 663 mmHg 79%
    17:00 +13°C° 0.1 mm 3 mps 663 mmHg 84%
    18:00 +12°C° 0.1 mm 3 mps 663 mmHg 90%
    19:00 +12°C° 0.1 mm 2 mps 663 mmHg 96%
    20:00 +12°C° 0.1 mm 2 mps 664 mmHg 96%
    21:00 +12°C° 0.1 mm 2 mps 664 mmHg 96%
    22:00 +10°C° 0.1 mm 2 mps 664 mmHg 96%
    23:00 +12°C° 0.1 mm 2 mps 664 mmHg 96%

    29 May, Wednesday

    Time Temperature Precipitation Wind Pressure Humidity
    00:00 +12°C° 0.1 mm 2 mps 664 mmHg 96%
    01:00 +12°C° 0.1 mm 2 mps 664 mmHg 95%
    02:00 +10°C° 0 mm 2 mps 664 mmHg 96%
    03:00 +10°C° 0 mm 2 mps 664 mmHg 96%
    04:00 +10°C° 0 mm 2 mps 664 mmHg 97%
    05:00 +11°C° 0 mm 3 mps 665 mmHg 94%
    06:00 +12°C° 0 mm 3 mps 665 mmHg 91%
    07:00 +12°C° 0 mm 3 mps 666 mmHg 88%
    08:00 +14°C° 0.1 mm 3 mps 666 mmHg 82%
    09:00 +16°C° 0.1 mm 3 mps 666 mmHg 76%
    10:00 +17°C° 0.1 mm 3 mps 667 mmHg 70%
    11:00 +17°C° 0.1 mm 3 mps 667 mmHg 68%
    12:00 +17°C° 0.1 mm 3 mps 667 mmHg 67%
    13:00 +18°C° 0.1 mm 3 mps 667 mmHg 65%
    14:00 +18°C° 0.1 mm 3 mps 667 mmHg 66%
    15:00 +18°C° 0.1 mm 3 mps 667 mmHg 67%
    16:00 +17°C° 0.1 mm 3 mps 667 mmHg 67%
    17:00 +16°C° 0.1 mm 2 mps 667 mmHg 75%
    18:00 +14°C° 0.1 mm 2 mps 667 mmHg 83%
    19:00 +13°C° 0.1 mm 1 mps 666 mmHg 92%
    20:00 +12°C° 0 mm 1 mps 666 mmHg 93%
    21:00 +10°C° 0 mm 2 mps 667 mmHg 95%
    22:00 +9°C° 0 mm 2 mps 667 mmHg 97%
    23:00 +10°C° 0 mm 1 mps 667 mmHg 97%

    30 May, Thursday

    Time Temperature Precipitation Wind Pressure Humidity
    00:00 +10°C° 0 mm 1 mps 666 mmHg 97%
    01:00 +10°C° 0 mm 1 mps 666 mmHg 97%
    02:00 +9°C° 0 mm 1 mps 666 mmHg 96%
    03:00 +9°C° 0 mm 1 mps 666 mmHg 96%
    04:00 +9°C° 0 mm 1 mps 666 mmHg 95%
    05:00 +11°C° 0 mm 1 mps 667 mmHg 87%
    06:00 +13°C° 0 mm 1 mps 667 mmHg 79%
    07:00 +15°C° 0 mm 1 mps 668 mmHg 70%
    08:00 +16°C° 0.1 mm 1 mps 668 mmHg 66%
    09:00 +17°C° 0.1 mm 2 mps 669 mmHg 61%
    10:00 +18°C° 0.1 mm 2 mps 669 mmHg 57%
    11:00 +18°C° 0.3 mm 2 mps 669 mmHg 57%
    12:00 +19°C° 0.3 mm 3 mps 669 mmHg 57%
    13:00 +19°C° 0.3 mm 3 mps 669 mmHg 58%
    14:00 +18°C° 0.2 mm 3 mps 668 mmHg 60%
    15:00 +18°C° 0.2 mm 3 mps 668 mmHg 62%
    16:00 +17°C° 0.2 mm 3 mps 668 mmHg 65%
    17:00 +16°C° 0.1 mm 2 mps 667 mmHg 72%
    18:00 +14°C° 0.1 mm 2 mps 667 mmHg 80%
    19:00 +12°C° 0.1 mm 1 mps 666 mmHg 88%
    20:00 +12°C° 0.1 mm 1 mps 667 mmHg 90%
    21:00 +11°C° 0.1 mm 1 mps 667 mmHg 91%
    22:00 +10°C° 0.1 mm 1 mps 667 mmHg 93%
    23:00 +10°C° 0 mm 1 mps 666 mmHg 92%
    Show more